{"data":{"norad_id":51866,"epoch":"2026-05-24T22:31:37.034976Z","epoch_age_seconds":81132,"freshness":"FRESH","line1":"1 51866U 22022Q   26144.93862309  .00000100  00000+0  24392-4 0  9995","line2":"2 51866  53.2162  26.6810 0001327  89.8768 270.2376 15.08843078234627","mean_motion":15.08843078,"eccentricity":0.0001327,"inclination_deg":53.2162,"raan_deg":26.681,"arg_perigee_deg":89.8768,"mean_anomaly_deg":270.2376,"bstar":2.4392e-5,"rev_number":23462,"period_min":95.437359987677,"perigee_km":538.81597928632,"apogee_km":540.65198224462,"semimajor_km":6917.8709807655,"source":"CELESTRAK","updated_at":"2026-05-25T13:38:16.962244Z"}}